When you browse on this site, cookies collect data to enhance your experience and personalize the content and advertising you see.
Visit our Privacy Policy to learn more. By continuing to use the site, you agree to this use of cookies and data.
  • En España
  • Lista de países
  • Para 7 días
  • Temperatura del agua
  • El tiempo en el mapa
  • Informadores
  • user-avatar
    Iniciar sesión

    Tiempo cada hora Sana

    Hoy, 15 Noviembre, Viernes

    Tiempo Temperatura Precipitaciones Viento Presión Humedad
    00:00 +14°C° 0 mm 2 mps 579 mmHg 46%
    01:00 +13°C° 0 mm 1 mps 579 mmHg 47%
    02:00 +13°C° 0 mm 1 mps 578 mmHg 49%
    03:00 +12°C° 0 mm 1 mps 578 mmHg 52%
    04:00 +12°C° 0 mm 1 mps 578 mmHg 53%
    05:00 +11°C° 0 mm 1 mps 578 mmHg 54%
    06:00 +11°C° 0 mm 1 mps 578 mmHg 55%
    07:00 +12°C° 0 mm 1 mps 579 mmHg 50%
    08:00 +14°C° 0 mm 1 mps 580 mmHg 45%
    09:00 +16°C° 0 mm 1 mps 581 mmHg 40%
    10:00 +18°C° 0 mm 1 mps 581 mmHg 37%
    11:00 +19°C° 0 mm 1 mps 581 mmHg 34%
    12:00 +21°C° 0 mm 1 mps 581 mmHg 31%
    13:00 +21°C° 0 mm 1 mps 581 mmHg 31%
    14:00 +21°C° 0 mm 2 mps 580 mmHg 30%
    15:00 +21°C° 0 mm 3 mps 580 mmHg 30%
    16:00 +20°C° 0 mm 3 mps 580 mmHg 34%
    17:00 +19°C° 0 mm 3 mps 580 mmHg 37%
    18:00 +18°C° 0 mm 4 mps 579 mmHg 41%
    19:00 +17°C° 0 mm 3 mps 579 mmHg 43%
    20:00 +16°C° 0 mm 2 mps 579 mmHg 45%
    21:00 +15°C° 0 mm 1 mps 579 mmHg 46%
    22:00 +15°C° 0 mm 1 mps 579 mmHg 48%
    23:00 +14°C° 0 mm 1 mps 579 mmHg 50%

    Mañana, 16 Noviembre, Sábado

    Tiempo Temperatura Precipitaciones Viento Presión Humedad
    00:00 +13°C° 0 mm 0 mps 578 mmHg 52%
    01:00 +12°C° 0 mm 0 mps 578 mmHg 53%
    02:00 +12°C° 0 mm 0 mps 577 mmHg 54%
    03:00 +11°C° 0 mm 0 mps 577 mmHg 56%
    04:00 +11°C° 0 mm 0 mps 577 mmHg 56%
    05:00 +11°C° 0 mm 0 mps 577 mmHg 57%
    06:00 +10°C° 0 mm 0 mps 577 mmHg 57%
    07:00 +12°C° 0 mm 0 mps 578 mmHg 52%
    08:00 +14°C° 0 mm 0 mps 578 mmHg 46%
    09:00 +15°C° 0 mm 0 mps 579 mmHg 41%
    10:00 +19°C° 0 mm 1 mps 579 mmHg 36%
    11:00 +20°C° 0 mm 1 mps 580 mmHg 32%
    12:00 +20°C° 0 mm 2 mps 580 mmHg 27%
    13:00 +21°C° 0 mm 2 mps 579 mmHg 27%
    14:00 +21°C° 0 mm 2 mps 579 mmHg 27%
    15:00 +22°C° 0 mm 3 mps 579 mmHg 27%
    16:00 +20°C° 0.1 mm 3 mps 579 mmHg 32%
    17:00 +19°C° 0.1 mm 3 mps 578 mmHg 37%
    18:00 +18°C° 0.1 mm 4 mps 578 mmHg 42%
    19:00 +17°C° 0 mm 3 mps 578 mmHg 41%
    20:00 +17°C° 0 mm 3 mps 578 mmHg 40%
    21:00 +16°C° 0 mm 3 mps 578 mmHg 38%
    22:00 +16°C° 0 mm 2 mps 578 mmHg 41%
    23:00 +15°C° 0 mm 1 mps 578 mmHg 43%

    Pasado mañana, 17 Noviembre, Domingo

    Tiempo Temperatura Precipitaciones Viento Presión Humedad
    00:00 +14°C° 0 mm 1 mps 577 mmHg 45%
    01:00 +14°C° 0 mm 1 mps 577 mmHg 47%
    02:00 +13°C° 0 mm 1 mps 576 mmHg 49%
    03:00 +13°C° 0 mm 1 mps 576 mmHg 51%
    04:00 +13°C° 0 mm 1 mps 576 mmHg 52%
    05:00 +12°C° 0 mm 1 mps 576 mmHg 54%
    06:00 +12°C° 0 mm 1 mps 576 mmHg 55%
    07:00 +14°C° 0 mm 1 mps 577 mmHg 51%
    08:00 +15°C° 0 mm 1 mps 578 mmHg 47%
    09:00 +18°C° 0 mm 1 mps 579 mmHg 43%
    10:00 +18°C° 0 mm 2 mps 579 mmHg 38%
    11:00 +20°C° 0 mm 2 mps 579 mmHg 32%
    12:00 +21°C° 0 mm 2 mps 580 mmHg 27%
    13:00 +21°C° 0 mm 3 mps 579 mmHg 26%
    14:00 +22°C° 0 mm 3 mps 579 mmHg 26%
    15:00 +22°C° 0 mm 3 mps 579 mmHg 26%
    16:00 +21°C° 0 mm 3 mps 579 mmHg 32%
    17:00 +20°C° 0 mm 3 mps 579 mmHg 38%
    18:00 +19°C° 0 mm 3 mps 579 mmHg 45%
    19:00 +18°C° 0 mm 2 mps 579 mmHg 46%
    20:00 +17°C° 0 mm 2 mps 579 mmHg 48%
    21:00 +17°C° 0 mm 2 mps 579 mmHg 50%
    22:00 +16°C° 0 mm 2 mps 579 mmHg 52%
    23:00 +16°C° 0 mm 1 mps 578 mmHg 53%

    18 Noviembre, Lunes

    Tiempo Temperatura Precipitaciones Viento Presión Humedad
    00:00 +15°C° 0 mm 1 mps 578 mmHg 55%
    01:00 +14°C° 0 mm 1 mps 577 mmHg 57%
    02:00 +13°C° 0 mm 0 mps 577 mmHg 59%
    03:00 +12°C° 0 mm 0 mps 577 mmHg 61%
    04:00 +12°C° 0 mm 0 mps 577 mmHg 63%
    05:00 +12°C° 0 mm 0 mps 577 mmHg 65%
    06:00 +11°C° 0 mm 0 mps 577 mmHg 67%
    07:00 +13°C° 0 mm 0 mps 578 mmHg 59%
    08:00 +15°C° 0 mm 0 mps 579 mmHg 51%
    09:00 +17°C° 0 mm 0 mps 581 mmHg 43%
    10:00 +20°C° 0 mm 1 mps 581 mmHg 39%
    11:00 +21°C° 0 mm 2 mps 581 mmHg 36%
    12:00 +23°C° 0 mm 2 mps 581 mmHg 32%
    13:00 +22°C° 0 mm 3 mps 580 mmHg 34%
    14:00 +22°C° 0 mm 3 mps 580 mmHg 35%
    15:00 +22°C° 0 mm 4 mps 580 mmHg 36%
    16:00 +21°C° 0.2 mm 3 mps 580 mmHg 41%
    17:00 +21°C° 0.2 mm 3 mps 580 mmHg 46%
    18:00 +20°C° 0.2 mm 2 mps 580 mmHg 50%
    19:00 +19°C° 0.1 mm 2 mps 580 mmHg 50%
    20:00 +19°C° 0.1 mm 2 mps 580 mmHg 51%
    21:00 +18°C° 0.1 mm 2 mps 580 mmHg 51%
    22:00 +17°C° 0 mm 2 mps 580 mmHg 52%
    23:00 +18°C° 0 mm 1 mps 579 mmHg 53%

    19 Noviembre, Martes

    Tiempo Temperatura Precipitaciones Viento Presión Humedad
    00:00 +16°C° 0 mm 1 mps 579 mmHg 54%
    01:00 +15°C° 0 mm 0 mps 578 mmHg 54%
    02:00 +14°C° 0 mm 0 mps 578 mmHg 55%
    03:00 +13°C° 0 mm 0 mps 577 mmHg 56%
    04:00 +13°C° 0 mm 0 mps 578 mmHg 56%
    05:00 +13°C° 0 mm 0 mps 578 mmHg 57%
    06:00 +12°C° 0 mm 0 mps 578 mmHg 57%
    07:00 +14°C° 0 mm 0 mps 579 mmHg 51%
    08:00 +16°C° 0 mm 0 mps 580 mmHg 44%
    09:00 +18°C° 0 mm 0 mps 581 mmHg 37%
    10:00 +21°C° 0 mm 1 mps 581 mmHg 35%
    11:00 +23°C° 0 mm 2 mps 581 mmHg 34%
    12:00 +24°C° 0 mm 3 mps 581 mmHg 32%
    13:00 +24°C° 0 mm 3 mps 581 mmHg 33%
    14:00 +23°C° 0 mm 4 mps 580 mmHg 34%
    15:00 +23°C° 0 mm 4 mps 580 mmHg 36%
    16:00 +22°C° 0.2 mm 4 mps 580 mmHg 41%
    17:00 +21°C° 0.2 mm 3 mps 579 mmHg 46%
    18:00 +20°C° 0.2 mm 2 mps 579 mmHg 51%
    19:00 +19°C° 0.1 mm 2 mps 579 mmHg 49%
    20:00 +19°C° 0.1 mm 2 mps 579 mmHg 47%
    21:00 +18°C° 0.1 mm 2 mps 579 mmHg 45%
    22:00 +19°C° 0 mm 1 mps 579 mmHg 46%
    23:00 +18°C° 0 mm 1 mps 578 mmHg 47%

    20 Noviembre, Miércoles

    Tiempo Temperatura Precipitaciones Viento Presión Humedad
    00:00 +15°C° 0 mm 0 mps 578 mmHg 48%
    01:00 +15°C° 0 mm 0 mps 577 mmHg 52%
    02:00 +14°C° 0 mm 0 mps 577 mmHg 55%
    03:00 +14°C° 0 mm 0 mps 576 mmHg 59%
    04:00 +13°C° 0 mm 0 mps 576 mmHg 64%
    05:00 +13°C° 0 mm 0 mps 576 mmHg 69%
    06:00 +13°C° 0 mm 0 mps 576 mmHg 74%
    07:00 +15°C° 0 mm 1 mps 577 mmHg 66%
    08:00 +18°C° 0 mm 1 mps 578 mmHg 59%
    09:00 +19°C° 0 mm 1 mps 579 mmHg 51%
    10:00 +20°C° 0 mm 2 mps 579 mmHg 46%
    11:00 +21°C° 0 mm 3 mps 579 mmHg 42%
    12:00 +22°C° 0 mm 3 mps 579 mmHg 37%
    13:00 +22°C° 0 mm 4 mps 579 mmHg 37%
    14:00 +22°C° 0 mm 4 mps 579 mmHg 38%
    15:00 +22°C° 0 mm 4 mps 578 mmHg 38%
    16:00 +21°C° 0.1 mm 3 mps 578 mmHg 45%
    17:00 +20°C° 0.1 mm 3 mps 578 mmHg 51%
    18:00 +19°C° 0.1 mm 2 mps 578 mmHg 58%
    19:00 +19°C° 0.2 mm 2 mps 578 mmHg 58%
    20:00 +19°C° 0.2 mm 1 mps 578 mmHg 58%
    21:00 +19°C° 0.2 mm 1 mps 578 mmHg 58%
    22:00 +18°C° 0.1 mm 1 mps 578 mmHg 60%
    23:00 +18°C° 0.1 mm 1 mps 578 mmHg 61%
    Mostrar más